Wind_Speed
26 28 29 30 30 31 31 31 31 31 30 29 29 27 25 23 23 24 24 24 24 24 23 23 22 20 20 20 20 21 21 20 20 19 18 17 17 17 16 16 16 15 15 14 13 12 11 11 11 11 11 11 10 10 10 10 11 11 11 12 14 15 16 15 14 13 12 11 9 8 7 7 7 7 8 9 8 7 7 7 6 6 6 7 6
27 28 29 30 31 31 32 32 32 31 31 30 29 27 24 22 22 23 24 24 24 24 23 23 21 20 20 20 21 21 21 20 20 19 18 17 17 16 16 15 15 15 14 13 13 11 11 11 11 11 11 11 10 10 10 11 11 11 12 12 14 15 16 16 15 14 13 11 10 9 7 7 7 7 8 9 9 8 8 7 7 7 7 7 7
29 31 32 32 32 32 32 32 31 31 30 29 26 24 23 21 22 22 23 24 24 24 23 22 21 21 20 21 21 21 20 20 20 19 18 17 17 16 15 15 15 14 13 13 13 11 11 11 11 11 11 11 10 10 10 11 11 11 12 12 13 14 15 16 15 14 13 12 10 9 8 7 7 7 8 10 10 9 8 8 7 7 7 7 7
32 34 34 33 32 32 32 31 30 30 28 26 24 23 22 21 21 22 23 23 23 23 22 21 21 21 21 21 21 20 20 20 20 19 18 18 17 16 15 15 14 13 13 12 12 11 11 11 11 12 12 11 10 11 11 11 12 11 11 12 13 14 15 16 16 14 13 12 11 10 8 7 7 7 8 10 10 10 9 8 8 7 7 7 7
36 36 35 36 35 33 31 30 30 30 27 25 24 23 21 20 21 22 23 23 22 22 22 21 21 21 21 21 21 20 20 20 19 19 18 18 17 17 16 15 14 13 12 12 12 11 11 11 12 12 12 11 10 11 11 11 11 11 11 12 13 14 15 16 16 15 14 13 12 11 10 8 7 7 8 10 11 11 10 9 8 8 7 7 7
38 37 36 37 38 35 32 30 30 28 26 25 24 23 21 20 21 22 22 22 22 22 22 22 22 22 21 21 21 20 20 19 19 19 19 18 18 17 16 15 14 13 12 12 12 11 11 12 12 12 12 12 11 11 11 10 11 12 11 11 12 14 15 16 16 16 15 14 13 11 11 9 7 7 8 10 11 11 10 9 9 8 8 7 7
39 39 38 37 37 37 35 32 29 26 26 26 25 23 21 21 21 21 22 22 22 22 22 22 22 21 21 21 21 20 20 19 19 18 18 19 18 17 16 15 14 14 13 12 12 11 11 12 12 12 12 12 11 11 11 11 11 12 11 11 12 13 14 15 16 16 16 15 13 12 11 10 8 8 8 9 11 11 11 10 9 9 8 8 7
41 43 41 37 37 39 37 32 27 26 26 26 25 24 22 21 21 20 21 22 22 22 22 22 22 21 21 21 21 20 20 19 19 18 18 18 18 17 16 15 15 15 13 13 12 12 12 12 13 13 13 13 12 12 12 12 11 12 12 11 12 13 14 15 16 17 16 16 14 13 12 11 9 8 8 9 10 11 11 11 10 9 9 8 8
38 40 41 37 35 37 36 30 27 27 27 27 25 24 23 21 20 20 21 22 22 21 21 21 21 21 21 21 21 21 20 19 19 19 19 19 18 18 16 15 16 15 14 13 13 12 12 12 13 14 14 13 13 13 13 13 12 12 12 12 12 13 14 15 15 16 17 17 15 14 13 11 10 9 8 9 10 11 11 11 10 9 9 8 8
35 35 37 35 31 32 34 32 31 31 29 26 24 24 23 21 20 20 21 21 21 21 21 21 21 21 21 21 21 21 20 20 19 19 19 19 18 18 17 16 16 15 14 14 13 13 13 13 13 14 15 15 14 14 14 13 13 12 12 12 12 13 15 15 14 16 17 17 16 15 14 12 11 10 9 9 9 10 11 11 11 10 9 9 8
39 38 37 34 30 30 32 34 36 34 30 27 26 26 24 21 21 20 20 20 20 20 20 20 21 21 22 22 22 22 21 20 19 19 19 19 18 18 17 16 16 16 15 14 14 13 13 13 14 15 16 16 16 15 15 14 13 13 12 12 13 14 15 15 14 15 17 17 17 16 15 14 12 11 10 9 9 10 11 11 11 11 10 9 9
41 42 40 34 31 32 32 33 34 33 32 30 29 27 25 22 21 20 19 19 19 20 21 21 22 22 23 23 23 23 22 21 20 20 19 18 18 17 17 16 16 16 15 14 14 14 13 14 15 16 16 17 17 16 16 15 14 13 13 13 13 14 15 15 15 16 17 18 18 17 16 15 14 12 11 10 9 9 10 11 12 12 11 10 9
39 39 40 35 31 32 35 36 33 32 32 32 30 27 25 22 21 19 19 19 19 20 21 22 22 23 23 24 24 23 22 21 21 20 20 19 18 17 16 15 15 16 16 15 15 14 14 15 16 17 17 17 17 17 17 17 16 15 14 14 14 15 16 16 16 17 17 18 19 19 18 17 15 14 12 11 10 10 10 11 12 12 12 11 10
38 36 36 36 33 31 36 39 36 33 32 31 30 28 25 23 21 20 19 19 20 21 21 22 22 23 23 23 24 23 23 22 21 20 20 19 18 17 16 15 15 16 16 16 15 15 15 16 17 18 18 18 18 18 18 18 17 16 15 15 15 16 16 16 17 18 18 18 19 20 19 18 17 16 14 12 11 10 10 11 11 12 12 12 11
40 38 35 34 34 31 36 39 35 32 33 31 30 27 25 25 22 20 19 19 20 21 21 22 22 23 23 23 23 23 22 21 21 20 20 19 19 18 16 16 15 15 16 16 16 16 16 17 18 19 19 19 19 19 20 19 19 17 17 17 17 17 17 17 17 19 20 20 20 21 21 20 19 17 16 14 12 11 11 11 11 12 12 12 12
42 41 36 32 32 30 34 37 31 30 32 30 29 28 28 26 23 21 20 20 20 20 21 21 22 22 23 23 23 22 22 21 21 20 20 19 19 19 18 17 16 16 16 17 18 18 18 18 19 20 20 20 20 21 21 21 20 18 18 17 17 18 19 18 18 19 21 22 21 21 22 21 20 18 17 15 14 13 12 11 11 11 11 12 12
42 39 34 31 31 29 31 34 29 28 29 28 29 28 27 26 23 22 21 21 20 20 20 21 22 23 23 23 23 22 22 22 21 20 19 19 19 19 19 18 17 17 16 17 19 19 19 19 19 20 21 21 21 21 22 22 21 20 18 18 18 19 20 19 18 19 21 23 23 22 22 21 20 19 18 16 15 14 13 12 11 10 11 12 12
35 34 30 29 30 28 27 31 31 27 27 29 29 27 26 25 24 23 22 21 20 20 21 22 22 22 23 23 23 23 23 22 21 20 20 19 19 20 19 18 18 18 17 18 19 20 21 21 20 20 21 21 21 21 22 23 22 21 19 18 18 19 20 20 20 20 21 23 24 23 22 22 21 20 19 17 16 15 14 12 12 11 11 12 13
29 28 27 26 28 27 23 25 28 26 27 29 28 26 25 24 23 23 22 20 20 21 21 21 22 22 23 24 24 24 23 22 21 20 20 19 20 20 20 19 18 18 18 18 19 21 21 22 21 21 21 22 22 21 22 22 22 21 20 19 19 20 20 20 20 20 21 23 24 25 24 23 22 21 20 19 17 16 15 14 13 12 12 12 13
28 26 25 24 24 25 24 28 32 30 28 27 26 26 24 24 23 22 20 19 20 20 21 22 22 23 24 24 25 24 23 22 21 21 20 20 19 20 19 19 19 18 18 18 19 20 21 22 22 22 22 22 23 23 22 22 22 22 21 20 20 20 20 20 21 22 22 22 24 25 25 24 23 22 22 21 19 17 16 15 14 14 13 13 13
27 24 24 23 23 24 25 29 30 25 22 21 21 22 22 23 22 20 19 19 20 21 22 22 23 24 24 25 25 24 24 23 22 22 20 20 19 19 19 19 19 18 18 18 19 20 20 22 23 23 23 23 23 23 23 22 22 22 22 21 21 20 20 21 22 23 23 23 24 25 26 26 25 24 23 22 21 19 17 16 15 15 14 14 14
26 23 22 22 23 24 24 24 22 17 16 17 18 20 21 21 20 19 19 20 21 22 22 23 24 24 25 25 25 24 24 24 23 22 21 20 20 19 18 18 18 18 18 18 19 19 20 21 22 23 23 23 23 23 23 22 21 22 22 22 21 20 21 22 23 23 24 25 24 25 26 27 27 25 24 24 23 21 19 18 17 16 15 15 15
26 23 22 21 21 21 22 23 22 20 18 18 19 20 19 19 18 18 19 20 21 22 22 23 24 25 25 25 25 25 24 24 23 22 21 21 20 18 17 17 17 18 18 18 19 19 20 20 21 22 22 23 22 22 22 22 21 21 22 21 20 21 22 23 24 24 24 25 26 25 26 28 28 27 26 25 24 22 21 20 19 18 17 16 16
26 24 23 21 20 19 20 21 19 16 16 16 17 18 17 17 17 18 20 21 22 22 23 24 25 25 25 25 25 25 24 24 23 22 21 21 19 18 17 17 17 18 18 18 18 19 19 20 20 21 21 22 22 22 22 22 22 21 21 21 20 21 23 23 24 24 24 25 26 26 26 28 29 29 28 26 25 24 23 22 21 19 18 17 17
23 22 21 20 19 20 21 21 16 13 14 15 16 16 16 17 18 19 20 21 22 22 22 23 24 25 26 26 26 25 24 23 22 22 21 20 19 17 17 16 17 17 18 18 18 18 18 19 20 20 21 21 21 22 22 22 22 21 21 20 20 21 23 24 24 24 25 26 26 26 26 28 30 30 30 28 27 26 24 23 22 21 20 19 18
17 16 16 16 18 19 20 20 17 15 16 17 17 18 19 19 20 20 20 20 21 21 22 23 24 25 26 26 25 24 24 23 22 21 21 19 18 17 17 16 17 17 17 17 17 17 17 18 19 20 20 20 21 22 22 22 22 21 20 20 20 20 22 24 24 24 25 26 27 27 28 29 30 30 31 30 29 28 26 25 24 23 22 21 20
12 12 13 14 16 17 17 18 19 19 19 19 19 19 19 19 19 18 18 19 20 20 21 23 24 25 25 24 24 23 22 21 20 20 19 18 17 17 17 17 17 17 16 16 16 16 16 17 18 18 18 19 20 21 21 22 22 21 20 20 20 20 22 23 23 24 26 28 28 29 30 30 31 31 31 32 31 30 29 27 26 25 24 23 22
12 11 12 14 14 15 16 17 19 19 18 18 18 17 17 17 18 17 17 18 19 20 21 22 23 23 23 21 20 19 19 20 19 19 18 17 16 16 17 17 17 16 16 16 16 16 16 16 16 17 17 18 18 19 20 21 22 22 21 20 20 20 21 23 23 24 26 29 32 32 32 33 32 31 31 32 32 32 31 30 28 27 26 25 24
14 13 13 13 12 12 15 16 18 19 19 19 18 17 17 16 16 16 17 18 19 20 20 21 21 21 19 17 16 16 17 17 17 17 16 16 16 16 17 17 16 15 15 16 16 16 16 16 16 16 16 17 18 19 20 20 21 22 23 21 20 19 21 23 23 23 24 25 30 33 34 34 34 32 31 32 33 33 33 32 30 29 28 27 26
15 14 13 11 10 10 14 18 19 19 20 21 20 17 16 15 15 15 16 17 18 18 18 18 18 17 16 15 14 14 15 14 14 14 14 15 15 16 16 16 15 15 15 16 16 16 16 16 16 16 16 17 18 19 19 20 20 21 22 22 21 20 20 23 24 24 22 21 25 30 33 35 36 35 33 32 33 33 33 33 33 32 30 29 28
15 14 13 13 9 8 13 20 20 18 21 22 19 15 14 14 15 16 16 17 17 17 16 16 16 16 15 14 13 13 13 12 12 12 13 14 14 15 16 16 16 15 16 16 16 16 17 17 17 17 17 17 18 18 18 19 19 20 21 21 20 20 20 23 24 24 23 22 22 25 29 33 35 37 35 33 32 33 33 34 34 34 33 31 30
15 13 13 13 10 6 9 14 14 14 18 19 16 14 14 14 15 16 17 17 16 16 16 16 15 16 15 14 13 13 12 11 11 11 12 13 14 15 15 16 16 16 16 17 16 16 16 17 17 17 17 18 18 18 18 18 18 18 19 19 19 19 20 22 24 25 25 24 24 24 26 29 33 36 37 35 33 33 33 34 34 35 34 33 32
13 11 10 10 12 12 13 15 12 12 15 15 14 14 14 15 16 17 18 17 17 16 16 16 15 16 15 14 13 13 13 11 11 11 12 13 15 15 15 16 16 16 17 17 17 16 17 17 17 17 18 19 19 18 18 18 18 18 18 18 18 18 19 20 21 23 24 25 25 25 25 27 30 33 35 36 35 33 32 33 33 34 35 34 33
12 11 10 9 9 13 15 15 11 12 15 15 14 14 14 15 16 17 18 17 17 16 16 15 15 15 14 13 13 14 13 11 11 12 12 13 13 14 15 16 16 16 17 16 16 16 17 17 17 17 18 19 19 18 18 19 19 18 17 17 17 17 17 18 19 21 23 24 25 25 26 27 28 30 33 36 36 35 33 32 32 33 34 34 34
13 13 13 11 8 8 10 9 8 12 16 16 15 14 13 14 14 16 17 17 17 16 15 15 14 14 14 14 14 14 13 12 12 12 12 12 12 14 14 15 16 17 17 16 16 16 16 17 18 18 18 19 19 18 18 18 19 19 17 16 16 16 16 16 17 19 21 23 24 25 26 27 27 29 31 34 36 35 33 32 32 32 33 33 34
13 13 14 14 10 6 6 7 10 14 16 16 15 14 13 13 13 14 16 17 17 16 15 14 14 13 12 13 14 14 13 12 13 13 13 12 13 14 15 15 17 18 17 16 16 16 16 17 18 18 19 19 19 19 18 18 19 19 18 17 16 15 16 17 17 17 19 20 23 25 27 28 27 28 29 31 34 36 35 33 32 32 32 32 33
10 11 14 15 9 3 5 8 12 14 16 16 15 13 13 13 13 14 15 16 16 16 15 15 14 13 12 12 13 13 12 13 14 14 13 13 15 15 15 15 15 17 18 17 17 17 17 17 17 17 17 18 18 18 18 19 19 19 19 17 16 16 16 18 19 19 19 20 21 23 26 29 29 28 29 31 33 36 37 36 34 33 32 32 32
10 15 19 18 11 5 8 11 12 13 14 14 13 12 12 13 14 14 14 15 15 15 15 15 14 13 12 12 12 12 13 13 13 13 13 14 15 14 15 16 15 16 18 17 17 16 17 17 17 16 16 16 17 18 18 19 19 19 19 18 17 17 18 19 20 20 20 21 22 22 23 26 29 30 30 31 32 35 39 39 37 35 33 33 32
9 15 18 17 9 6 9 10 10 11 12 13 12 11 12 13 14 14 14 15 15 15 14 14 14 13 12 12 12 12 13 13 12 13 13 13 14 14 15 16 15 16 18 18 17 16 17 17 17 16 16 16 16 17 18 19 19 18 19 19 18 18 19 20 20 20 21 21 23 22 21 22 26 29 30 29 29 32 37 41 41 38 36 35 34
6 9 13 13 11 9 7 8 9 9 10 11 10 10 12 14 14 14 15 15 15 15 14 14 14 13 13 12 12 12 13 13 13 13 13 12 13 13 14 14 14 16 19 19 17 16 16 16 16 16 16 16 16 16 17 18 18 18 19 19 19 19 19 20 20 20 20 21 22 22 21 20 21 23 25 26 28 30 33 38 43 43 40 37 35
8 8 10 12 11 10 9 9 10 10 10 10 10 11 12 14 15 16 16 17 17 16 15 14 14 13 13 12 13 13 13 13 13 13 13 13 13 13 13 13 14 17 19 18 17 16 16 16 16 17 17 17 16 16 17 18 19 19 20 20 20 19 19 19 19 20 19 19 21 21 21 20 19 19 21 23 25 28 30 34 40 44 43 40 37
11 10 11 11 11 11 11 11 12 11 10 10 10 11 12 14 16 17 17 18 18 18 17 15 14 14 13 12 13 13 13 14 14 14 14 14 14 14 14 14 15 17 18 17 17 17 16 17 18 18 18 19 18 18 18 18 19 20 20 20 20 20 19 18 18 18 19 19 19 20 19 19 19 18 19 19 19 22 26 30 35 42 44 42 39
14 13 13 13 12 12 12 12 13 12 10 10 10 11 12 14 16 18 18 18 18 18 17 16 16 15 14 13 13 13 14 14 14 14 14 14 14 15 15 16 17 18 19 18 18 18 19 19 20 20 20 20 20 19 19 19 19 19 19 20 19 20 20 19 18 17 17 18 18 19 18 17 18 18 18 17 16 17 20 24 30 37 42 43 41
16 15 15 15 14 14 13 13 12 11 11 11 12 13 14 15 17 18 18 18 18 17 17 16 16 16 15 14 14 14 15 15 14 14 13 14 14 15 16 18 19 20 20 20 20 21 21 21 21 22 22 22 21 20 19 19 19 19 19 19 19 20 20 19 18 17 16 17 18 19 18 17 18 19 19 18 18 17 17 18 23 30 38 43 43
16 16 17 17 16 15 14 13 13 12 12 13 13 14 15 16 17 17 17 17 17 18 18 17 16 16 15 15 14 14 14 14 14 13 13 13 14 15 16 18 20 21 21 22 23 23 23 23 23 23 23 22 22 20 20 20 19 19 20 20 20 20 20 19 19 19 18 17 18 19 19 18 18 19 19 20 19 17 16 17 19 22 30 39 43
15 16 17 17 16 15 15 14 14 14 14 14 14 15 16 17 17 17 15 15 16 18 18 17 16 16 15 15 14 14 14 14 13 13 13 13 14 14 15 17 18 20 21 22 23 23 24 24 23 23 23 22 22 21 20 20 20 20 20 21 21 21 20 20 20 20 19 19 18 19 19 19 19 20 20 20 19 17 18 21 21 20 23 31 39
13 13 14 14 14 14 15 16 16 17 16 16 16 16 16 17 17 17 15 15 15 16 18 18 17 16 16 15 14 13 13 14 13 12 12 13 13 14 14 16 17 18 20 21 22 22 23 23 23 23 22 22 22 21 21 21 21 21 21 22 22 22 22 21 21 21 20 20 20 19 19 19 20 20 20 19 18 19 21 22 22 24 23 23 28
11 11 12 13 14 15 16 17 18 18 18 18 18 17 16 17 18 18 17 16 15 14 17 19 19 17 16 16 15 13 13 13 14 13 12 12 13 13 14 15 16 17 18 19 19 20 20 20 21 21 22 22 21 22 22 21 21 21 21 22 23 23 23 23 22 22 21 21 21 20 20 20 19 20 20 20 18 19 20 18 16 17 19 19 22
10 11 12 13 14 15 16 18 19 19 20 20 20 19 18 17 17 18 18 17 15 14 17 21 22 21 18 16 15 13 13 13 14 14 13 12 12 13 13 14 15 16 16 16 17 17 18 18 19 20 21 21 22 22 23 23 23 22 22 22 23 24 24 23 23 22 23 23 23 21 21 20 20 19 20 20 20 19 20 19 17 15 14 15 17
12 13 14 14 15 16 17 18 20 21 22 22 22 21 20 18 17 17 17 16 14 13 16 21 24 25 22 17 15 13 12 13 14 14 14 13 12 12 13 13 14 15 15 15 15 16 17 18 19 20 21 21 22 23 23 24 24 23 23 22 23 24 25 25 24 24 24 24 24 23 22 21 21 22 21 21 21 20 19 20 21 19 16 14 14
13 13 14 15 17 18 19 21 22 23 23 23 24 23 22 20 19 17 17 17 18 18 20 23 24 26 24 19 16 14 12 12 13 14 14 13 13 12 12 12 13 14 15 15 15 16 17 18 19 20 21 21 22 23 23 24 24 23 23 23 23 25 25 25 25 25 25 25 25 25 25 25 25 25 25 24 23 22 21 22 22 21 19 17 17
Wind_Direction
274 276 278 281 282 282 283 284 286 287 290 292 295 298 297 296 296 295 294 293 293 293 294 296 297 300 302 302 302 303 303 303 304 304 306 307 309 309 308 306 304 303 299 297 295 288 284 284 279 275 274 274 274 272 273 277 272 263 255 250 246 242 239 232 227 228 225 222 224 230 231 229 225 221 222 220 220 218 209 198 186 171 166 163 156
275 279 280 281 282 283 284 285 286 289 292 294 296 297 296 295 293 291 291 290 290 291 291 293 295 298 300 301 300 301 301 301 302 302 304 305 306 306 305 304 303 302 298 296 294 286 280 280 274 272 272 271 272 271 269 274 271 262 258 253 248 244 239 232 228 229 226 223 225 231 233 233 231 224 221 221 221 219 211 199 187 174 169 168 164
276 280 281 280 279 280 282 283 284 287 291 293 295 296 295 292 289 288 288 288 288 288 289 292 295 298 299 299 299 299 300 299 300 301 302 303 303 303 303 302 301 300 296 294 292 283 276 275 270 269 269 269 271 271 267 272 271 263 260 257 251 244 239 233 228 229 228 225 226 231 232 234 235 229 223 221 222 222 213 200 189 178 174 173 171
277 281 282 280 277 277 278 278 280 282 286 290 292 294 292 288 286 286 286 286 286 287 289 292 294 296 296 297 298 299 299 299 299 299 300 301 301 300 300 300 299 298 294 292 289 280 271 268 265 264 266 267 268 269 267 270 272 265 260 259 253 246 240 234 229 228 229 227 227 231 232 233 235 233 226 221 222 224 218 203 193 183 178 177 178
280 282 285 283 277 274 273 272 275 278 280 284 289 292 289 285 283 284 284 284 285 288 290 292 294 295 295 296 298 299 299 298 299 299 299 298 297 297 297 297 297 295 291 288 284 276 268 263 260 260 264 265 265 268 269 269 271 268 261 258 255 248 241 235 230 227 228 229 229 231 233 233 232 231 228 222 220 224 222 210 199 191 184 182 183
281 284 289 287 278 270 268 269 271 274 275 278 285 289 286 282 281 282 282 283 285 288 291 292 294 295 296 296 297 297 298 298 298 297 297 296 294 294 293 294 293 291 288 285 280 272 264 259 256 256 259 262 262 265 268 268 270 269 263 258 256 251 244 238 231 227 227 230 231 233 235 235 232 229 227 223 220 223 225 216 207 199 192 188 188
279 284 289 287 281 276 270 266 267 268 269 274 280 283 281 278 279 280 280 282 285 288 290 292 294 295 295 296 296 296 297 297 297 295 294 293 292 291 290 291 289 287 284 281 277 269 261 257 254 251 254 258 259 261 264 265 267 268 264 259 257 255 249 241 234 228 227 231 232 234 237 237 235 230 227 224 221 222 225 222 214 207 200 196 194
278 281 283 281 281 282 275 265 264 265 265 269 274 277 276 275 275 276 278 281 284 287 290 293 294 294 294 294 294 295 295 295 294 292 290 290 288 288 288 287 285 284 282 279 275 267 258 253 251 247 247 252 255 257 259 261 263 265 264 260 257 256 253 246 238 231 228 231 233 235 238 239 237 234 228 225 222 221 225 226 222 216 208 203 202
283 281 278 276 277 280 275 265 266 266 264 265 268 272 272 271 270 272 276 280 284 288 291 292 293 293 293 292 293 293 293 292 291 289 288 287 286 286 286 285 283 282 281 277 272 265 256 251 249 246 244 247 249 252 254 256 260 262 264 261 258 257 256 252 243 235 231 231 234 236 238 239 238 235 230 226 223 223 224 227 227 224 218 211 209
281 283 278 273 272 277 270 265 271 269 265 262 264 268 266 264 264 268 273 279 284 288 290 290 291 291 292 292 292 291 290 289 287 285 284 284 284 285 285 283 282 280 279 275 270 263 255 249 247 246 244 244 244 246 249 251 255 259 263 263 260 257 257 257 248 239 234 233 235 237 239 239 239 237 233 228 224 222 223 227 229 229 228 221 216
275 279 280 275 269 270 267 269 274 270 265 260 262 264 258 257 259 265 271 278 284 286 288 289 290 291 291 291 290 289 287 285 283 282 281 282 283 283 283 282 280 279 276 272 268 262 254 248 247 247 244 244 243 243 246 247 250 253 258 261 260 256 257 259 253 243 237 235 235 238 240 240 239 237 234 231 226 223 221 224 228 230 231 229 224
277 276 276 276 270 266 267 270 271 266 262 257 258 257 251 252 255 262 268 275 280 283 287 288 288 288 288 289 288 287 285 284 282 281 280 281 282 282 282 280 279 276 272 268 266 260 254 248 248 248 245 245 244 243 244 246 247 248 251 254 255 254 256 258 257 250 241 237 237 238 240 241 241 239 236 232 228 226 223 222 226 228 228 229 228
280 280 270 271 277 273 269 265 263 261 255 251 251 249 246 246 250 257 263 269 276 281 284 285 286 286 286 286 285 284 284 283 282 281 280 281 282 282 281 278 275 273 269 263 261 259 254 249 248 249 247 245 245 243 242 243 244 244 245 247 249 251 254 254 256 254 246 240 238 238 240 242 242 241 238 233 230 229 227 223 224 228 228 228 227
279 285 271 266 274 276 275 263 254 251 243 242 244 242 239 239 243 249 257 265 272 277 280 282 283 282 282 281 281 282 282 282 281 280 280 280 281 281 280 277 273 269 264 259 256 255 253 250 248 250 250 246 244 243 241 241 242 241 241 244 244 247 249 250 253 254 251 244 240 240 240 241 242 241 239 235 232 231 230 226 223 226 229 229 228
276 284 276 267 267 275 278 258 241 239 235 235 235 232 231 233 238 245 253 263 269 273 276 277 278 278 278 278 278 279 280 280 279 279 278 279 279 279 278 275 271 266 260 255 251 250 250 249 247 249 251 246 242 241 240 239 239 239 240 241 241 243 245 245 248 251 253 249 243 243 241 241 242 242 241 238 235 234 233 231 226 225 228 230 230
274 280 277 271 270 273 268 249 236 237 234 231 228 227 231 233 236 243 252 260 266 270 271 272 273 274 275 276 277 278 280 279 278 277 276 276 276 276 275 272 269 264 258 251 248 247 247 247 246 248 250 247 242 239 239 238 237 236 238 240 240 241 243 242 244 247 252 252 247 245 245 244 244 245 244 241 239 237 237 235 232 229 229 230 230
270 275 276 272 272 270 260 253 248 239 233 231 232 234 237 235 236 244 252 257 261 264 266 268 269 271 273 275 277 278 278 278 276 275 273 273 272 272 271 269 267 263 257 250 246 245 246 245 245 247 249 249 244 239 238 237 235 232 234 239 240 240 242 241 242 244 247 251 250 247 247 248 248 249 249 246 244 241 240 240 238 235 233 233 231
271 271 274 273 271 269 261 259 255 243 238 241 242 240 238 237 240 247 252 255 258 260 263 264 266 269 271 273 274 275 276 276 275 274 272 270 269 267 266 265 264 262 259 253 246 243 245 245 246 247 249 250 249 244 240 238 235 230 228 234 239 239 242 242 241 242 244 249 251 249 248 249 250 250 252 251 249 247 245 243 241 239 236 234 233
277 272 271 270 270 269 263 260 257 251 246 244 240 234 236 240 243 248 250 252 255 257 259 261 264 267 268 270 272 273 275 275 276 274 272 270 268 266 263 262 260 260 257 253 247 243 244 246 248 248 250 252 252 249 244 241 235 230 226 228 235 239 242 241 239 240 242 247 251 251 249 248 250 251 252 252 251 250 249 247 245 242 240 236 234
279 276 271 268 270 268 267 264 258 250 240 235 232 232 238 242 244 245 246 248 251 253 257 260 262 264 266 268 270 273 275 276 276 276 275 273 270 268 265 262 259 257 256 253 248 245 243 245 248 249 250 251 252 251 248 244 237 230 225 225 231 236 240 241 240 239 239 243 248 251 251 249 249 251 253 253 252 251 249 248 246 244 243 240 236
278 280 275 268 268 269 274 267 252 240 233 233 235 237 241 242 243 242 242 246 249 253 256 259 261 264 267 268 271 273 275 276 276 277 278 277 274 271 268 264 260 257 256 253 249 246 244 244 247 249 250 250 251 251 250 247 241 233 225 222 228 233 236 240 242 240 238 239 243 247 251 250 248 248 251 253 253 252 250 247 246 244 243 243 241
277 281 279 271 269 270 276 272 262 260 252 246 244 241 240 238 237 237 241 246 250 253 256 259 262 264 267 270 272 274 276 277 277 279 280 280 277 274 271 267 263 260 257 254 250 248 246 245 246 248 250 251 251 251 251 249 245 237 228 222 224 229 232 237 240 241 239 237 239 243 247 249 247 245 247 250 252 252 251 249 246 244 243 243 243
278 280 281 280 282 280 279 278 281 282 266 250 239 231 229 229 232 238 243 247 251 254 257 261 263 266 269 271 274 276 277 278 279 281 281 280 278 275 272 269 266 262 259 256 253 250 248 247 247 249 251 253 254 253 252 250 248 242 233 223 221 225 229 233 237 240 239 237 237 239 243 247 248 246 244 246 250 251 251 250 248 246 244 243 244
281 282 283 286 289 289 285 283 284 279 258 236 224 221 224 230 237 242 246 251 255 258 261 265 268 271 273 275 277 278 279 279 280 281 280 278 275 273 271 268 265 261 258 257 255 253 252 251 250 251 252 255 256 256 254 252 251 247 239 228 220 221 225 229 234 237 238 238 237 239 242 246 247 247 244 243 245 248 249 250 249 248 245 244 244
285 284 285 287 287 287 289 285 276 263 247 230 222 225 231 237 242 247 251 256 259 262 265 269 272 275 276 278 280 281 282 282 281 279 276 274 273 272 270 266 262 259 257 258 258 257 256 255 253 253 253 254 255 255 255 253 252 250 243 233 222 219 221 226 231 234 236 237 237 238 242 245 247 247 246 243 241 244 247 248 248 248 246 244 243
290 288 287 287 286 286 286 280 265 252 246 236 228 229 234 240 246 251 254 257 260 264 267 271 274 276 278 280 282 283 283 282 279 275 272 271 272 272 270 266 261 259 259 259 259 259 258 256 255 255 254 253 254 255 255 253 252 250 243 235 226 219 220 224 229 232 234 235 235 236 240 243 245 246 246 245 242 241 243 246 246 247 246 245 244
292 289 286 285 283 281 281 273 260 252 244 232 227 230 237 243 248 251 254 257 261 265 268 271 273 275 277 279 281 283 282 280 275 271 268 269 271 272 270 267 263 261 260 259 259 260 259 257 256 256 254 253 253 254 255 253 251 248 242 234 227 221 221 224 229 233 234 233 232 233 235 239 242 243 244 246 244 241 241 243 245 246 246 245 245
298 293 289 287 284 283 281 271 256 245 235 229 231 238 243 247 250 252 255 259 263 265 267 269 270 272 274 277 280 281 279 276 271 268 267 267 268 269 268 266 263 260 258 256 257 259 259 258 256 254 253 252 252 254 255 254 251 248 244 237 230 224 223 228 232 237 239 235 230 229 231 234 237 240 241 243 244 243 241 241 242 244 245 245 244
294 289 287 286 287 287 279 267 250 238 236 239 243 244 245 248 252 255 259 262 264 265 264 265 267 269 272 275 278 277 274 273 270 266 265 264 264 264 264 263 260 256 253 253 253 255 256 257 255 253 252 252 252 253 254 254 253 250 249 245 239 230 226 231 236 242 248 244 233 229 230 232 234 237 239 240 242 243 243 242 241 242 244 244 244
287 282 276 273 283 284 261 247 239 239 251 255 249 244 243 248 253 257 260 260 261 261 261 262 265 267 270 272 273 271 271 271 268 265 264 262 261 259 257 257 255 251 249 250 251 253 256 257 257 255 254 254 253 254 255 256 256 254 253 250 247 240 234 234 238 242 247 248 241 234 233 233 235 236 238 239 240 242 243 243 242 242 243 244 245
274 268 263 260 281 291 253 239 238 251 266 260 247 242 244 249 253 254 256 255 256 257 259 261 262 264 265 265 267 265 266 267 264 263 262 260 258 256 253 252 251 249 247 248 250 253 255 257 258 257 255 254 255 257 259 259 258 255 253 250 248 247 242 239 240 240 240 242 243 240 236 236 237 237 237 238 239 240 242 243 243 242 242 243 244
267 258 256 254 265 274 242 235 243 262 263 251 242 242 245 248 250 252 253 252 253 254 257 258 259 260 260 259 259 259 262 261 259 258 257 255 253 252 251 250 249 248 245 246 248 250 253 254 255 255 255 255 256 258 261 261 259 255 252 250 248 247 244 242 241 241 240 239 238 238 238 238 240 240 239 239 240 241 241 242 243 243 243 243 243
267 258 251 248 255 253 235 230 243 259 252 245 244 245 246 248 249 250 252 252 253 254 256 257 257 259 259 258 257 258 260 257 253 253 252 250 249 247 246 246 246 245 242 242 245 247 250 252 253 254 255 256 257 259 261 263 262 258 255 251 250 249 246 245 245 245 244 242 240 238 238 238 240 241 241 240 240 242 242 243 243 243 244 244 244
250 240 232 233 247 250 240 234 238 245 247 248 248 248 250 250 249 250 253 255 255 256 257 258 259 261 262 260 257 257 258 254 248 247 249 248 245 243 240 241 242 242 241 241 244 246 248 250 251 253 255 258 258 258 260 263 264 263 261 258 255 255 255 253 253 252 249 247 245 242 240 240 240 240 240 239 239 240 243 244 244 245 245 245 245
231 219 221 223 218 218 222 220 227 241 248 251 251 253 256 256 256 257 258 261 262 262 262 262 262 262 262 260 257 254 252 249 244 244 247 245 239 235 232 234 237 238 240 241 244 246 248 249 250 251 253 256 259 259 259 260 262 262 263 262 259 257 258 256 255 255 254 251 249 246 242 241 242 242 240 238 237 238 241 244 245 246 246 246 246
232 218 217 213 196 192 215 219 233 246 250 250 250 253 258 263 264 263 264 266 268 268 267 266 266 264 262 260 259 256 252 249 247 247 246 242 238 231 227 228 231 235 238 241 244 246 248 250 251 251 252 255 258 259 258 257 258 260 261 260 257 255 255 256 257 258 257 255 252 249 246 242 241 243 243 240 236 235 237 241 244 246 248 247 246
247 236 226 209 186 180 244 243 245 249 250 247 246 250 256 262 264 266 267 268 270 271 271 270 268 265 262 260 259 259 256 253 253 252 245 240 237 229 225 224 225 230 235 239 243 245 247 249 251 252 254 255 256 255 253 253 256 259 260 257 253 250 251 255 258 260 260 259 257 254 249 245 241 242 245 245 239 235 234 237 240 243 246 247 246
260 250 231 206 182 189 229 243 248 248 249 247 248 254 261 265 267 268 269 271 272 273 273 271 269 266 262 259 257 257 256 254 256 256 249 242 235 226 224 221 216 222 229 233 237 241 244 246 250 252 254 256 255 252 249 249 252 255 258 257 253 248 248 252 256 259 259 260 260 258 254 248 242 240 244 247 244 239 235 235 237 240 242 244 245
270 255 230 208 206 232 235 245 250 251 253 253 255 262 271 276 277 277 277 278 276 274 273 272 270 268 264 262 259 256 255 254 253 252 250 246 236 226 223 219 215 219 227 231 232 236 242 244 246 249 254 255 254 251 248 247 248 250 254 255 254 251 249 251 253 256 258 258 259 259 257 253 246 242 244 248 248 246 241 237 236 237 239 241 243
254 253 238 234 257 272 266 266 264 263 261 257 260 268 279 285 287 289 288 286 283 278 275 271 270 268 265 263 259 257 256 254 251 244 243 242 235 230 225 221 219 221 230 236 234 234 241 243 245 248 253 255 253 250 248 247 247 247 249 251 252 252 251 250 249 251 254 255 257 259 257 255 252 248 247 250 252 252 249 242 238 236 236 238 241
239 241 244 249 261 270 274 274 269 266 261 261 268 274 281 288 291 293 292 291 289 285 281 274 269 267 264 261 257 255 252 251 249 242 236 233 230 230 228 226 224 226 234 239 237 237 241 243 246 248 251 253 251 249 247 246 246 246 246 248 251 251 250 250 249 248 248 250 254 256 256 254 252 251 252 254 256 256 254 248 241 236 235 236 239
251 250 252 255 260 266 270 270 268 266 262 265 271 274 280 287 291 292 292 292 291 289 286 281 276 272 267 261 255 253 251 248 246 242 236 232 229 227 227 226 226 230 236 238 237 239 241 243 245 247 249 250 250 249 248 246 245 245 245 248 251 251 251 253 254 249 243 244 248 249 250 250 250 251 254 258 260 259 258 254 245 238 235 235 237
261 259 259 262 262 263 264 265 268 268 266 268 271 273 277 283 287 290 291 290 289 288 287 287 284 280 276 268 257 251 248 247 245 242 239 235 232 229 228 227 227 230 233 235 237 239 241 243 245 247 248 249 250 251 250 247 245 245 246 249 251 251 252 255 257 253 245 243 245 247 248 248 250 253 254 258 263 265 264 260 252 242 237 235 236
266 264 262 263 263 264 264 266 269 270 272 273 272 273 276 279 282 286 289 288 286 284 283 284 283 282 280 276 268 256 248 245 245 244 242 240 236 232 230 230 229 231 232 234 236 238 241 243 244 246 247 248 249 250 250 248 247 248 249 251 252 252 253 253 254 251 248 247 246 249 253 250 249 253 255 256 260 265 270 269 260 249 241 237 236
267 265 263 264 266 268 271 274 275 275 277 278 277 278 278 277 277 281 286 288 287 285 282 281 280 280 279 277 274 268 256 248 244 245 245 245 242 238 235 233 232 232 233 235 237 239 241 243 244 246 247 249 249 249 249 249 249 250 252 253 254 254 253 252 250 248 248 250 250 251 255 252 248 249 252 255 258 263 271 272 266 259 250 242 238
265 263 264 268 272 276 279 279 280 281 282 281 281 283 283 280 275 274 280 286 287 285 284 282 279 277 277 275 273 273 268 257 249 246 246 247 247 245 242 239 237 236 235 236 237 240 242 245 246 247 249 250 250 250 250 250 251 251 252 254 254 254 253 251 251 251 249 251 253 252 251 249 247 247 248 251 254 255 259 262 258 257 255 247 242
261 263 267 273 276 278 279 280 283 284 284 283 284 285 285 282 273 266 271 281 285 286 286 285 282 278 274 272 270 270 272 266 258 250 247 248 248 248 247 245 244 241 239 239 239 240 241 243 244 246 247 248 250 252 251 251 252 252 253 254 255 255 254 253 252 253 252 252 254 251 247 246 249 250 248 247 247 244 251 262 258 252 255 255 250
255 260 263 267 269 272 276 279 281 280 280 281 282 281 281 280 271 262 266 279 284 289 291 289 287 283 277 272 268 267 269 269 264 257 251 249 248 249 248 246 246 245 243 242 242 242 242 243 244 245 247 249 250 253 253 253 253 252 253 254 256 256 255 255 254 254 254 254 253 251 249 250 251 251 247 246 248 246 250 265 266 253 254 258 258
245 249 252 256 260 266 270 272 273 273 275 276 275 276 276 277 271 261 262 274 281 287 294 294 294 290 283 276 270 266 266 269 265 258 252 249 248 247 248 248 248 247 246 245 245 246 247 247 248 249 250 251 253 254 254 254 254 253 252 253 255 256 255 254 253 252 253 253 252 250 250 251 250 248 245 246 251 250 250 258 264 258 254 255 259
245 248 251 254 257 259 261 262 264 265 267 269 269 271 273 274 272 262 256 260 267 279 293 298 299 295 287 280 273 266 263 267 265 259 250 246 245 246 248 251 252 251 251 250 250 250 251 252 253 254 255 255 256 257 257 257 256 255 253 252 251 253 253 253 252 252 252 253 251 249 249 249 250 250 250 252 254 254 252 255 260 260 257 260 266
250 254 257 258 257 255 252 251 255 258 262 265 266 267 271 275 275 265 255 255 262 274 288 296 298 292 287 284 278 268 260 262 264 259 250 242 239 239 244 249 253 254 254 253 254 254 254 255 256 256 257 257 258 258 258 258 258 258 256 252 249 250 251 251 251 251 252 253 252 250 249 250 252 254 256 259 260 258 256 256 257 255 254 262 267
Height
5847 5847 5847 5847 5847 5846 5846 5845 5845 5845 5845 5845 5845 5845 5845 5846 5846 5846 5846 5846 5846 5845 5845 5845 5844 5844 5844 5844 5843 5843 5842 5842 5841 5841 5840 5840 5839 5839 5839 5838 5838 5838 5837 5837 5837 5837 5837 5837 5837 5836 5837 5837 5837 5838 5838 5839 5839 5839 5839 5839 5839 5839 5839 5840 5840 5841 5842 5842 5842 5843 5842 5842 5842 5842 5842 5843 5843 5843 5844 5844 5844 5843 5843 5843 5843
5845 5845 5846 5846 5846 5845 5845 5844 5844 5843 5843 5843 5844 5844 5844 5844 5844 5845 5845 5845 5845 5844 5844 5844 5843 5843 5843 5842 5842 5841 5841 5840 5840 5840 5839 5839 5839 5838 5838 5838 5837 5837 5837 5836 5836 5836 5836 5836 5836 5836 5836 5837 5837 5837 5838 5838 5839 5839 5839 5839 5839 5839 5839 5839 5840 5840 5841 5842 5842 5842 5842 5842 5842 5842 5842 5842 5843 5843 5844 5844 5844 5843 5843 5843 5843
5843 5843 5844 5844 5844 5844 5844 5843 5842 5842 5842 5842 5842 5842 5842 5842 5843 5843 5843 5843 5843 5843 5843 5843 5843 5842 5842 5841 5841 5840 5840 5839 5839 5839 5838 5838 5838 5837 5837 5837 5836 5836 5836 5836 5836 5836 5836 5836 5836 5836 5836 5836 5837 5837 5838 5838 5838 5838 5839 5839 5838 5838 5838 5839 5839 5840 5841 5841 5841 5842 5842 5842 5842 5842 5842 5842 5843 5843 5844 5844 5844 5844 5844 5843 5843
5840 5841 5841 5842 5842 5842 5842 5841 5841 5840 5840 5841 5841 5841 5841 5841 5841 5842 5842 5842 5842 5842 5842 5842 5841 5841 5841 5840 5839 5839 5838 5838 5837 5837 5837 5836 5836 5836 5836 5836 5835 5835 5835 5835 5835 5835 5835 5835 5835 5835 5836 5836 5837 5837 5837 5838 5838 5838 5838 5838 5838 5838 5838 5838 5839 5839 5840 5840 5841 5841 5842 5842 5842 5842 5842 5842 5843 5843 5843 5844 5844 5844 5844 5844 5844
5839 5839 5840 5839 5839 5839 5838 5838 5838 5839 5839 5839 5840 5840 5840 5840 5840 5840 5840 5841 5841 5841 5841 5841 5840 5840 5839 5839 5838 5838 5837 5837 5836 5836 5836 5835 5835 5835 5835 5835 5835 5834 5834 5834 5834 5834 5834 5834 5834 5835 5835 5836 5837 5837 5837 5838 5838 5838 5838 5838 5838 5837 5837 5838 5838 5839 5839 5840 5840 5840 5841 5841 5841 5842 5842 5842 5842 5843 5843 5843 5844 5844 5844 5844 5844
5837 5839 5839 5837 5836 5835 5835 5836 5836 5837 5838 5838 5838 5839 5839 5839 5839 5839 5839 5839 5839 5840 5840 5839 5839 5839 5838 5837 5837 5836 5836 5835 5835 5835 5834 5834 5834 5834 5834 5834 5833 5833 5833 5833 5833 5833 5833 5834 5834 5834 5835 5836 5836 5837 5837 5837 5837 5837 5838 5837 5837 5837 5837 5837 5837 5838 5839 5839 5839 5840 5840 5841 5841 5841 5841 5842 5842 5843 5843 5843 5843 5844 5844 5844 5844
5835 5837 5837 5836 5835 5834 5834 5834 5834 5835 5836 5836 5837 5837 5837 5837 5838 5838 5838 5838 5838 5838 5838 5838 5838 5837 5837 5836 5835 5835 5834 5834 5833 5833 5833 5833 5832 5832 5832 5832 5832 5832 5832 5833 5832 5832 5833 5833 5833 5833 5834 5835 5836 5836 5836 5837 5837 5837 5837 5837 5837 5836 5836 5836 5837 5838 5838 5838 5839 5839 5840 5840 5841 5841 5841 5841 5842 5842 5843 5843 5843 5844 5844 5844 5844
5834 5834 5835 5835 5835 5833 5832 5832 5832 5833 5833 5834 5835 5836 5836 5836 5836 5837 5837 5837 5837 5837 5836 5836 5836 5835 5835 5834 5833 5833 5833 5832 5832 5832 5831 5831 5831 5831 5831 5831 5831 5831 5831 5832 5832 5832 5832 5832 5832 5832 5833 5834 5835 5835 5836 5836 5836 5836 5836 5836 5836 5836 5835 5836 5836 5837 5838 5838 5838 5838 5839 5839 5840 5841 5841 5841 5841 5842 5842 5843 5843 5844 5844 5844 5844
5832 5831 5831 5832 5833 5832 5831 5831 5831 5831 5832 5833 5833 5834 5835 5835 5835 5835 5835 5835 5835 5835 5835 5834 5834 5833 5832 5832 5831 5831 5831 5831 5830 5830 5830 5830 5830 5830 5830 5830 5830 5830 5830 5830 5830 5831 5831 5831 5831 5831 5832 5833 5834 5834 5835 5835 5836 5836 5836 5836 5836 5835 5834 5835 5836 5837 5837 5837 5837 5838 5838 5839 5839 5840 5840 5841 5841 5841 5842 5842 5843 5844 5844 5844 5845
5829 5828 5827 5828 5830 5830 5830 5830 5829 5830 5830 5831 5832 5833 5833 5833 5833 5834 5834 5834 5834 5833 5833 5832 5832 5831 5830 5830 5830 5829 5829 5829 5828 5828 5828 5828 5828 5828 5829 5829 5829 5829 5829 5829 5829 5829 5830 5830 5830 5830 5830 5831 5832 5833 5833 5834 5835 5835 5836 5836 5835 5835 5833 5834 5835 5836 5837 5837 5837 5837 5837 5838 5838 5839 5839 5840 5840 5841 5841 5842 5842 5843 5844 5844 5845
5826 5826 5825 5826 5827 5827 5828 5828 5828 5828 5829 5830 5830 5830 5831 5831 5832 5832 5832 5832 5832 5832 5831 5830 5830 5829 5829 5828 5828 5828 5828 5827 5826 5826 5826 5826 5827 5827 5827 5827 5827 5827 5828 5828 5828 5828 5829 5829 5829 5829 5829 5830 5831 5832 5832 5833 5834 5835 5835 5835 5835 5834 5833 5833 5834 5835 5836 5836 5836 5836 5836 5837 5837 5838 5839 5839 5840 5840 5841 5841 5842 5843 5843 5844 5844
5824 5823 5823 5824 5825 5826 5825 5826 5825 5826 5827 5827 5827 5828 5828 5829 5830 5830 5830 5830 5830 5830 5829 5828 5828 5827 5827 5826 5826 5826 5826 5825 5825 5824 5824 5825 5825 5825 5825 5825 5825 5826 5826 5826 5827 5827 5827 5827 5827 5827 5828 5828 5829 5830 5831 5832 5833 5834 5834 5835 5834 5833 5833 5833 5833 5834 5835 5835 5835 5835 5836 5836 5837 5837 5838 5838 5839 5840 5841 5841 5842 5842 5843 5844 5844
5821 5821 5821 5822 5823 5823 5822 5822 5822 5823 5824 5824 5825 5825 5826 5827 5827 5828 5828 5828 5828 5828 5827 5826 5826 5825 5825 5824 5824 5825 5824 5824 5824 5823 5823 5823 5823 5823 5823 5823 5824 5824 5824 5825 5825 5825 5826 5826 5826 5825 5826 5827 5828 5829 5830 5831 5832 5833 5833 5834 5833 5833 5832 5832 5832 5833 5834 5835 5835 5835 5835 5835 5836 5836 5837 5838 5838 5839 5840 5841 5841 5842 5842 5843 5844
5820 5819 5819 5820 5820 5819 5818 5818 5818 5819 5820 5821 5822 5822 5823 5824 5824 5825 5826 5826 5826 5825 5825 5824 5824 5823 5823 5822 5822 5822 5822 5822 5822 5822 5821 5821 5821 5821 5821 5822 5822 5822 5822 5823 5823 5824 5824 5824 5824 5824 5825 5826 5827 5828 5829 5829 5830 5832 5832 5833 5832 5832 5832 5832 5832 5832 5832 5833 5834 5834 5834 5834 5835 5836 5836 5837 5838 5838 5839 5840 5841 5841 5842 5842 5843
5818 5817 5817 5817 5817 5815 5814 5813 5814 5816 5816 5817 5818 5819 5819 5820 5822 5823 5823 5824 5823 5823 5823 5822 5822 5821 5821 5821 5820 5820 5820 5820 5820 5820 5820 5820 5819 5819 5819 5820 5820 5820 5821 5821 5821 5822 5822 5822 5823 5822 5823 5824 5825 5826 5827 5827 5829 5830 5831 5832 5832 5831 5831 5831 5831 5831 5831 5832 5833 5833 5833 5833 5834 5835 5836 5836 5837 5838 5839 5840 5840 5841 5841 5842 5843
5815 5814 5814 5815 5814 5813 5811 5809 5811 5812 5813 5814 5815 5815 5816 5818 5819 5821 5821 5821 5821 5821 5821 5820 5820 5820 5819 5819 5819 5819 5818 5818 5819 5819 5818 5818 5818 5817 5817 5817 5818 5818 5819 5819 5819 5820 5820 5821 5821 5821 5821 5822 5823 5824 5824 5825 5827 5829 5830 5830 5831 5830 5829 5830 5830 5830 5830 5830 5831 5832 5832 5833 5834 5834 5835 5836 5836 5837 5838 5839 5840 5840 5841 5842 5842
5811 5811 5811 5812 5812 5812 5811 5810 5810 5810 5812 5812 5812 5813 5815 5816 5817 5819 5819 5819 5819 5819 5819 5818 5818 5818 5818 5818 5818 5817 5817 5817 5817 5817 5817 5816 5816 5816 5815 5815 5816 5816 5817 5817 5818 5818 5818 5819 5819 5819 5819 5819 5820 5821 5822 5823 5825 5827 5829 5829 5829 5829 5828 5829 5829 5829 5829 5829 5830 5831 5832 5832 5833 5834 5834 5835 5836 5836 5837 5838 5839 5840 5840 5841 5842
5808 5808 5808 5809 5809 5809 5809 5809 5809 5809 5810 5810 5811 5812 5813 5815 5816 5817 5817 5817 5817 5817 5817 5816 5816 5816 5816 5816 5816 5815 5815 5815 5815 5815 5814 5814 5814 5814 5814 5814 5814 5814 5815 5815 5816 5816 5816 5817 5817 5818 5818 5818 5818 5819 5820 5821 5823 5825 5827 5828 5828 5827 5827 5828 5828 5828 5829 5828 5828 5830 5831 5832 5832 5833 5834 5834 5835 5836 5837 5837 5838 5839 5840 5840 5841
5805 5805 5806 5807 5807 5807 5807 5808 5808 5808 5808 5809 5809 5810 5812 5813 5814 5814 5815 5815 5815 5815 5815 5814 5814 5814 5814 5814 5814 5813 5813 5813 5813 5812 5812 5812 5812 5812 5812 5812 5812 5812 5813 5814 5814 5815 5815 5815 5816 5816 5816 5816 5816 5817 5818 5819 5821 5823 5825 5826 5826 5826 5826 5826 5827 5827 5827 5828 5828 5828 5830 5831 5832 5832 5833 5834 5835 5835 5836 5837 5837 5838 5839 5840 5840
5804 5804 5804 5805 5806 5805 5805 5806 5805 5805 5806 5806 5807 5809 5810 5811 5812 5812 5812 5812 5812 5812 5813 5813 5813 5813 5812 5812 5811 5811 5811 5810 5810 5810 5810 5810 5810 5810 5810 5810 5810 5811 5811 5812 5812 5813 5813 5814 5814 5814 5814 5815 5815 5815 5816 5817 5818 5821 5823 5824 5824 5824 5825 5825 5826 5826 5826 5827 5827 5827 5828 5830 5831 5832 5832 5833 5834 5835 5835 5836 5837 5837 5838 5839 5839
5802 5803 5803 5803 5803 5803 5803 5803 5802 5803 5805 5806 5806 5807 5808 5809 5810 5810 5810 5810 5810 5810 5811 5811 5811 5810 5810 5810 5809 5809 5809 5808 5808 5808 5808 5808 5808 5808 5808 5808 5809 5809 5810 5810 5811 5811 5812 5812 5812 5812 5812 5813 5813 5813 5814 5815 5816 5818 5820 5822 5823 5823 5824 5824 5824 5825 5825 5826 5826 5826 5827 5828 5830 5831 5831 5832 5833 5834 5835 5835 5836 5836 5837 5838 5839
5800 5801 5801 5801 5800 5800 5802 5802 5802 5803 5804 5805 5805 5806 5806 5807 5807 5807 5808 5808 5808 5808 5809 5809 5808 5808 5808 5807 5807 5807 5807 5806 5806 5806 5806 5806 5806 5806 5806 5807 5807 5808 5808 5809 5809 5810 5811 5811 5811 5810 5811 5811 5812 5812 5812 5813 5814 5816 5818 5820 5821 5822 5822 5823 5823 5823 5824 5824 5825 5825 5826 5826 5828 5829 5830 5831 5832 5833 5834 5834 5835 5835 5836 5837 5838
5798 5798 5798 5799 5799 5799 5800 5800 5800 5801 5802 5802 5803 5803 5804 5804 5805 5805 5806 5806 5806 5806 5806 5806 5806 5805 5805 5805 5805 5805 5805 5804 5804 5805 5805 5804 5804 5805 5805 5805 5805 5806 5806 5807 5808 5808 5809 5809 5809 5809 5809 5810 5810 5810 5810 5811 5812 5813 5816 5818 5819 5820 5820 5820 5821 5822 5822 5823 5824 5824 5824 5825 5826 5827 5829 5830 5830 5831 5832 5833 5834 5834 5835 5836 5837
5796 5796 5797 5797 5798 5798 5798 5798 5798 5798 5799 5800 5800 5801 5801 5802 5802 5803 5803 5803 5804 5804 5804 5804 5803 5803 5803 5803 5803 5803 5803 5802 5803 5803 5803 5803 5803 5803 5803 5803 5803 5803 5804 5805 5806 5806 5807 5807 5808 5808 5808 5808 5808 5809 5809 5809 5810 5811 5813 5815 5817 5818 5818 5818 5819 5820 5821 5821 5822 5823 5823 5823 5824 5825 5827 5828 5829 5830 5831 5832 5833 5833 5834 5835 5836
5793 5794 5795 5796 5797 5797 5797 5797 5796 5797 5797 5798 5798 5799 5799 5799 5800 5801 5801 5801 5802 5802 5802 5802 5801 5801 5801 5801 5801 5801 5801 5801 5801 5801 5801 5801 5801 5801 5801 5801 5801 5801 5802 5803 5804 5804 5805 5806 5806 5806 5807 5807 5807 5807 5807 5807 5808 5809 5811 5813 5815 5816 5816 5816 5816 5818 5819 5820 5821 5822 5822 5822 5822 5823 5825 5826 5828 5829 5829 5830 5831 5832 5833 5834 5834
5791 5792 5793 5794 5795 5795 5795 5795 5795 5795 5796 5796 5796 5796 5797 5798 5799 5799 5800 5800 5800 5800 5800 5800 5799 5799 5799 5799 5799 5799 5799 5799 5799 5799 5799 5799 5799 5799 5799 5799 5799 5799 5800 5801 5801 5802 5803 5804 5804 5805 5805 5805 5805 5805 5805 5805 5806 5807 5809 5811 5812 5813 5814 5814 5814 5815 5816 5817 5819 5820 5820 5820 5821 5822 5823 5824 5826 5827 5828 5829 5830 5831 5831 5832 5833
5790 5791 5792 5792 5792 5793 5793 5793 5793 5793 5794 5794 5795 5796 5796 5797 5797 5798 5798 5798 5798 5798 5798 5798 5798 5798 5798 5798 5798 5797 5797 5797 5797 5796 5796 5796 5796 5796 5796 5796 5797 5797 5798 5799 5799 5800 5801 5802 5803 5803 5803 5803 5803 5803 5803 5803 5804 5804 5806 5808 5810 5811 5811 5812 5813 5814 5814 5815 5816 5817 5817 5818 5819 5819 5821 5822 5823 5825 5826 5827 5828 5829 5830 5831 5832
5788 5789 5790 5790 5790 5790 5791 5791 5791 5792 5793 5794 5794 5795 5795 5795 5795 5796 5796 5796 5795 5796 5796 5796 5796 5796 5796 5796 5796 5795 5794 5794 5794 5794 5794 5794 5794 5794 5794 5794 5795 5795 5796 5797 5797 5798 5799 5800 5801 5801 5801 5801 5801 5801 5801 5802 5802 5802 5804 5806 5807 5809 5810 5810 5810 5811 5811 5812 5812 5813 5814 5815 5816 5817 5818 5819 5821 5822 5824 5825 5826 5827 5828 5829 5830
5786 5787 5787 5788 5789 5789 5789 5789 5790 5791 5792 5793 5794 5794 5794 5794 5794 5794 5794 5794 5794 5794 5794 5794 5793 5794 5794 5793 5793 5792 5792 5791 5791 5791 5791 5791 5792 5792 5792 5792 5793 5794 5794 5795 5796 5797 5797 5798 5799 5799 5799 5799 5799 5799 5799 5800 5800 5801 5802 5804 5806 5807 5808 5808 5808 5809 5809 5809 5809 5810 5811 5812 5813 5815 5816 5817 5818 5820 5821 5822 5824 5825 5826 5827 5828
5785 5785 5786 5787 5787 5788 5788 5788 5789 5791 5792 5792 5793 5793 5793 5792 5792 5793 5793 5792 5792 5791 5791 5791 5791 5791 5791 5791 5790 5790 5789 5789 5789 5788 5789 5789 5789 5789 5790 5790 5791 5792 5792 5793 5794 5795 5796 5796 5797 5797 5797 5797 5797 5797 5798 5798 5799 5799 5800 5802 5804 5805 5806 5806 5806 5806 5806 5807 5807 5808 5809 5810 5811 5812 5813 5815 5816 5817 5818 5820 5821 5823 5824 5825 5826
5783 5783 5784 5785 5786 5786 5786 5787 5789 5790 5791 5791 5792 5791 5791 5791 5791 5790 5790 5790 5790 5789 5789 5789 5789 5789 5788 5788 5787 5787 5786 5786 5786 5786 5786 5787 5787 5787 5788 5788 5789 5790 5791 5791 5792 5793 5794 5794 5795 5795 5795 5795 5795 5796 5796 5796 5797 5798 5798 5800 5801 5802 5803 5803 5803 5803 5804 5804 5805 5805 5806 5807 5809 5810 5811 5812 5813 5814 5816 5817 5818 5820 5821 5823 5824
5781 5781 5782 5784 5785 5785 5786 5787 5788 5789 5790 5790 5790 5790 5790 5789 5789 5788 5788 5788 5788 5788 5787 5787 5787 5786 5786 5785 5785 5784 5784 5784 5784 5784 5784 5784 5785 5785 5786 5787 5787 5788 5789 5790 5791 5791 5792 5792 5793 5793 5793 5793 5794 5794 5794 5795 5795 5796 5796 5797 5798 5799 5800 5800 5801 5801 5802 5802 5802 5803 5804 5805 5806 5807 5808 5810 5810 5812 5813 5814 5816 5817 5819 5820 5822
5780 5780 5780 5782 5783 5784 5785 5785 5786 5787 5788 5789 5788 5788 5788 5787 5787 5787 5787 5787 5787 5786 5785 5785 5785 5784 5784 5783 5783 5782 5782 5781 5782 5781 5782 5782 5783 5783 5784 5785 5785 5786 5787 5788 5789 5789 5790 5790 5791 5791 5791 5791 5792 5792 5793 5793 5793 5794 5794 5795 5796 5796 5797 5798 5798 5799 5799 5800 5800 5801 5802 5802 5803 5804 5806 5807 5808 5809 5811 5812 5813 5814 5816 5818 5819
5778 5778 5779 5781 5782 5783 5784 5784 5785 5786 5787 5787 5787 5786 5786 5786 5785 5785 5785 5785 5785 5784 5784 5783 5783 5782 5782 5781 5781 5780 5780 5780 5780 5780 5780 5780 5781 5781 5782 5783 5784 5784 5785 5786 5787 5787 5788 5788 5789 5789 5789 5789 5790 5791 5791 5791 5791 5792 5793 5793 5794 5795 5796 5796 5797 5797 5797 5797 5798 5799 5800 5800 5800 5801 5802 5803 5805 5807 5808 5810 5811 5812 5813 5815 5816
5776 5776 5778 5779 5781 5782 5783 5783 5783 5784 5785 5785 5785 5785 5784 5784 5783 5783 5783 5782 5782 5782 5782 5781 5781 5780 5780 5780 5779 5779 5779 5779 5778 5778 5778 5778 5779 5779 5780 5781 5782 5783 5784 5785 5785 5785 5786 5786 5787 5787 5787 5787 5787 5788 5789 5789 5789 5790 5791 5792 5792 5793 5794 5794 5795 5795 5795 5796 5796 5797 5797 5798 5798 5798 5799 5800 5802 5804 5806 5807 5809 5809 5810 5812 5813
5774 5775 5776 5777 5778 5779 5780 5781 5782 5783 5784 5784 5784 5783 5782 5782 5781 5781 5781 5781 5780 5780 5780 5779 5779 5779 5779 5779 5778 5778 5778 5778 5777 5776 5777 5777 5777 5777 5778 5778 5780 5781 5782 5783 5783 5783 5784 5784 5785 5785 5785 5785 5786 5786 5787 5787 5787 5788 5789 5790 5791 5791 5792 5792 5792 5793 5793 5793 5794 5794 5794 5795 5795 5795 5796 5797 5799 5801 5803 5804 5806 5807 5807 5809 5810
5774 5773 5774 5775 5776 5777 5778 5779 5781 5782 5783 5783 5782 5781 5780 5780 5779 5779 5779 5779 5779 5779 5778 5777 5777 5777 5777 5777 5777 5777 5777 5777 5776 5775 5776 5776 5775 5776 5776 5776 5777 5778 5779 5780 5781 5781 5782 5782 5783 5784 5784 5784 5784 5784 5785 5785 5785 5786 5787 5788 5789 5789 5790 5790 5790 5790 5791 5791 5791 5791 5792 5792 5793 5793 5794 5795 5796 5797 5799 5800 5802 5803 5804 5805 5807
5772 5771 5772 5773 5774 5776 5777 5779 5780 5781 5781 5781 5780 5779 5778 5778 5778 5778 5778 5778 5778 5777 5776 5776 5775 5775 5775 5775 5775 5775 5775 5775 5775 5775 5775 5774 5774 5775 5775 5775 5775 5776 5777 5777 5778 5778 5779 5780 5781 5782 5782 5782 5783 5783 5783 5783 5783 5784 5784 5785 5786 5787 5788 5788 5788 5788 5788 5788 5788 5789 5789 5789 5790 5790 5791 5792 5793 5794 5795 5796 5798 5800 5801 5802 5803
5770 5770 5771 5772 5773 5775 5777 5778 5779 5779 5778 5778 5777 5777 5776 5776 5776 5776 5776 5776 5776 5776 5775 5774 5774 5774 5773 5773 5773 5774 5774 5774 5774 5774 5774 5773 5774 5774 5773 5773 5774 5774 5774 5774 5776 5777 5777 5778 5779 5780 5780 5781 5781 5781 5781 5781 5782 5782 5782 5783 5784 5785 5786 5786 5786 5786 5786 5786 5786 5786 5787 5787 5787 5787 5788 5789 5790 5791 5792 5793 5794 5796 5797 5799 5800
5770 5770 5771 5772 5773 5774 5775 5776 5776 5776 5776 5776 5775 5775 5774 5774 5774 5774 5774 5775 5775 5774 5774 5773 5773 5772 5772 5772 5772 5772 5772 5773 5773 5773 5773 5772 5772 5772 5771 5772 5772 5772 5772 5773 5775 5776 5776 5776 5777 5778 5778 5778 5779 5779 5779 5779 5780 5780 5780 5781 5781 5782 5783 5783 5784 5784 5784 5784 5783 5784 5784 5785 5785 5785 5786 5787 5787 5788 5789 5789 5790 5792 5793 5795 5797
5770 5770 5771 5772 5772 5773 5773 5774 5774 5775 5775 5774 5774 5774 5773 5772 5772 5772 5773 5773 5772 5772 5772 5772 5771 5771 5771 5771 5771 5771 5771 5772 5772 5772 5772 5771 5771 5770 5770 5770 5771 5771 5771 5772 5774 5774 5774 5775 5775 5775 5776 5776 5777 5777 5777 5778 5778 5778 5779 5779 5779 5780 5780 5781 5781 5782 5782 5782 5781 5781 5782 5783 5783 5783 5784 5784 5785 5785 5785 5786 5786 5787 5789 5791 5793
5769 5770 5770 5771 5771 5771 5771 5772 5773 5773 5773 5773 5773 5772 5772 5771 5770 5771 5771 5771 5771 5770 5769 5769 5769 5770 5770 5770 5770 5770 5770 5770 5771 5771 5771 5770 5769 5769 5769 5769 5769 5769 5770 5771 5771 5772 5772 5773 5773 5773 5774 5775 5775 5776 5776 5776 5776 5777 5777 5777 5777 5778 5778 5779 5779 5779 5779 5780 5779 5779 5779 5780 5781 5782 5782 5782 5782 5782 5782 5782 5783 5784 5785 5788 5790
5767 5768 5768 5769 5769 5769 5770 5770 5771 5771 5771 5771 5771 5771 5771 5770 5769 5769 5769 5769 5769 5769 5768 5768 5768 5768 5768 5768 5769 5769 5769 5769 5769 5769 5769 5768 5768 5768 5768 5768 5768 5768 5768 5769 5769 5770 5770 5771 5771 5772 5772 5773 5774 5774 5774 5775 5775 5775 5775 5775 5775 5775 5776 5776 5776 5776 5777 5777 5777 5777 5777 5778 5779 5779 5780 5780 5780 5780 5779 5779 5779 5780 5782 5784 5786
5764 5765 5766 5766 5766 5767 5767 5768 5769 5770 5770 5769 5769 5770 5770 5769 5768 5768 5768 5768 5768 5768 5767 5767 5767 5766 5766 5766 5767 5767 5767 5767 5767 5767 5766 5766 5766 5766 5766 5766 5766 5766 5766 5767 5767 5767 5768 5768 5769 5770 5770 5771 5772 5772 5773 5773 5773 5773 5773 5773 5773 5773 5774 5774 5774 5774 5775 5775 5776 5776 5775 5776 5777 5777 5778 5778 5778 5778 5777 5777 5777 5778 5779 5781 5783
5762 5763 5763 5763 5764 5764 5765 5766 5767 5767 5768 5768 5768 5768 5768 5768 5767 5767 5767 5766 5766 5766 5766 5766 5766 5765 5765 5764 5764 5765 5765 5765 5765 5764 5764 5764 5764 5764 5764 5765 5765 5765 5765 5765 5765 5765 5766 5766 5767 5768 5768 5769 5770 5770 5771 5771 5771 5772 5772 5772 5772 5772 5772 5772 5772 5772 5772 5773 5773 5774 5774 5774 5774 5775 5775 5775 5776 5776 5776 5775 5775 5775 5776 5777 5779
5760 5761 5761 5761 5761 5762 5763 5764 5764 5765 5765 5766 5766 5766 5766 5766 5766 5766 5765 5765 5765 5765 5765 5765 5765 5765 5764 5763 5762 5762 5762 5761 5761 5762 5762 5762 5762 5762 5763 5763 5763 5763 5763 5763 5763 5764 5764 5765 5765 5766 5766 5767 5767 5768 5768 5769 5769 5769 5770 5770 5770 5770 5770 5770 5769 5769 5770 5770 5771 5772 5772 5772 5772 5772 5773 5773 5773 5774 5774 5773 5772 5773 5774 5774 5775
5760 5760 5760 5760 5760 5761 5761 5762 5762 5762 5763 5763 5764 5764 5764 5763 5763 5764 5764 5764 5764 5764 5764 5764 5764 5763 5763 5762 5761 5760 5759 5758 5758 5758 5759 5759 5760 5760 5761 5761 5761 5761 5761 5761 5761 5762 5762 5763 5763 5764 5764 5764 5765 5765 5766 5767 5767 5767 5768 5768 5768 5768 5768 5767 5767 5767 5768 5768 5769 5769 5769 5769 5770 5770 5770 5771 5771 5771 5772 5771 5770 5771 5771 5771 5772
5759 5759 5759 5759 5759 5760 5760 5761 5760 5760 5760 5761 5761 5761 5761 5761 5760 5761 5761 5761 5761 5762 5761 5761 5761 5761 5761 5760 5759 5758 5757 5757 5756 5756 5756 5757 5758 5758 5759 5759 5759 5760 5760 5760 5760 5760 5760 5761 5761 5761 5762 5762 5762 5763 5763 5764 5765 5765 5765 5765 5765 5765 5765 5765 5765 5765 5766 5766 5766 5766 5767 5767 5767 5768 5768 5769 5769 5769 5769 5769 5768 5769 5769 5770 5770
5757 5757 5758 5758 5758 5759 5759 5759 5758 5758 5757 5757 5758 5758 5758 5758 5757 5758 5758 5759 5758 5759 5759 5759 5759 5759 5759 5757 5756 5756 5755 5755 5755 5754 5754 5755 5756 5756 5757 5757 5757 5758 5758 5758 5758 5758 5758 5759 5759 5759 5759 5760 5760 5761 5761 5761 5762 5762 5763 5763 5763 5763 5763 5763 5763 5763 5764 5764 5764 5764 5764 5764 5764 5765 5766 5767 5767 5768 5767 5767 5766 5767 5767 5768 5768
5756 5756 5756 5757 5757 5757 5757 5757 5756 5755 5755 5755 5755 5755 5755 5755 5755 5755 5756 5756 5756 5756 5756 5756 5756 5756 5756 5755 5754 5754 5753 5753 5753 5753 5753 5753 5754 5754 5755 5755 5755 5756 5756 5756 5756 5756 5756 5756 5757 5757 5757 5758 5758 5758 5758 5759 5759 5760 5760 5761 5761 5760 5760 5760 5761 5761 5761 5761 5761 5761 5761 5761 5762 5762 5763 5764 5765 5765 5765 5765 5764 5765 5765 5766 5766
5754 5754 5755 5755 5754 5754 5754 5753 5752 5752 5752 5752 5752 5753 5753 5753 5753 5753 5754 5754 5754 5753 5753 5754 5754 5754 5754 5753 5753 5752 5751 5751 5751 5752 5752 5752 5752 5752 5753 5753 5754 5754 5754 5754 5754 5754 5754 5754 5755 5755 5755 5756 5756 5756 5756 5756 5756 5757 5757 5758 5758 5757 5757 5757 5757 5758 5758 5758 5759 5759 5759 5759 5760 5760 5761 5762 5762 5763 5763 5762 5762 5763 5763 5763 5764